Preview of NWS' New Version of Forecast
This preview is not operational and should not be used for support decisions.

Regional Weather Roundup (RWR)

Issued by National Weather Service (NWS)

                            
000
ASUS43 KBIS 202210
RWRND 

NORTH DAKOTA REGIONAL WEATHER ROUNDUP
NATIONAL WEATHER SERVICE BISMARCK ND
500 PM CDT TUE AUG 20 2019

NOTE: "FAIR" INDICATES FEW OR NO CLOUDS BELOW 12,000 FEET WITH NO
SIGNIFICANT WEATHER AND/OR OBSTRUCTIONS TO VISIBILITY.


NDZ001>003-009>011-017-202300-
NORTHWEST NORTH DAKOTA
  
CITY           SKY/WX    TMP DP  RH WIND       PRES   REMARKS
WILLISTON      SUNNY     75  44  33 CALM      30.18S                  
MINOT          SUNNY     76  45  33 N3        30.14F                  
MINOT AFB      SUNNY     74  44  34 N3        30.12F                  
$$
 
NDZ018>021-031>035-040>046-202300-
SOUTHWEST NORTH DAKOTA
  
CITY           SKY/WX    TMP DP  RH WIND       PRES   REMARKS
BISMARCK       SUNNY     76  51  41 NE5       30.14S                  
DICKINSON      SUNNY     76  46  34 E8        30.17F                  
GARRISON         N/A     73  46  38 CALM      30.15S                  
HETTINGER ARPT SUNNY     76  53  44 E7        30.18S                  
$$
 
NDZ004>008-012>016-024-026-027-054-202300-
NORTHEAST NORTH DAKOTA
  
CITY           SKY/WX    TMP DP  RH WIND       PRES   REMARKS
GRAND FORKS    SUNNY     77  48  35 N9        30.05F                  
GRND FRKS AFB  SUNNY     74  48  39 N9        30.07F                  
DEVILS LAKE    SUNNY     71  45  39 NW10      30.12S                  
$$
 
NDZ022-023-025-028>030-036>039-047>053-202300-
SOUTHEAST NORTH DAKOTA
  
CITY           SKY/WX    TMP DP  RH WIND       PRES   REMARKS
FARGO          SUNNY     74  56  53 N13       30.04F                  
JAMESTOWN      SUNNY     73  56  54 NW8       30.10S                  
$$